When you browse on this site, cookies collect data to enhance your experience and personalize the content and advertising you see.
Visit our Privacy Policy to learn more. By continuing to use the site, you agree to this use of cookies and data.
EN

Hourly Weather Swedow

Today, 8 August, Saturday

Time Temperature Precipitation Wind Pressure Humidity
00:00 +23°C° 0 mm 2 mps 753 mmHg 81%
01:00 +23°C° 0 mm 2 mps 753 mmHg 83%
02:00 +21°C° 0 mm 2 mps 753 mmHg 85%
03:00 +21°C° 0 mm 2 mps 753 mmHg 87%
04:00 +21°C° 0 mm 2 mps 753 mmHg 89%
05:00 +23°C° 0 mm 2 mps 753 mmHg 86%
06:00 +24°C° 0 mm 2 mps 753 mmHg 83%
07:00 +25°C° 0 mm 2 mps 753 mmHg 78%
08:00 +26°C° 0 mm 2 mps 753 mmHg 72%
09:00 +28°C° 0 mm 3 mps 753 mmHg 66%
10:00 +29°C° 0 mm 3 mps 753 mmHg 59%
11:00 +30°C° 0.3 mm 3 mps 753 mmHg 56%
12:00 +30°C° 0.3 mm 2 mps 752 mmHg 53%
13:00 +31°C° 0.3 mm 2 mps 752 mmHg 50%
14:00 +31°C° 0 mm 2 mps 752 mmHg 50%
15:00 +31°C° 0 mm 2 mps 751 mmHg 50%
16:00 +31°C° 0 mm 2 mps 751 mmHg 49%
17:00 +29°C° 0 mm 2 mps 751 mmHg 55%
18:00 +28°C° 0 mm 2 mps 751 mmHg 60%
19:00 +27°C° 0 mm 2 mps 751 mmHg 65%
20:00 +26°C° 0.1 mm 2 mps 751 mmHg 68%
21:00 +25°C° 0.1 mm 2 mps 751 mmHg 71%
22:00 +24°C° 0.1 mm 2 mps 751 mmHg 74%
23:00 +24°C° 0 mm 2 mps 751 mmHg 76%

Tomorrow, 9 August, Sunday

Time Temperature Precipitation Wind Pressure Humidity
00:00 +23°C° 0 mm 1 mps 751 mmHg 78%
01:00 +23°C° 0 mm 1 mps 751 mmHg 80%
02:00 +23°C° 0 mm 1 mps 751 mmHg 81%
03:00 +22°C° 0 mm 1 mps 751 mmHg 82%
04:00 +22°C° 0 mm 1 mps 750 mmHg 84%
05:00 +23°C° 0 mm 1 mps 751 mmHg 80%
06:00 +22°C° 0 mm 0 mps 751 mmHg 76%
07:00 +23°C° 0 mm 0 mps 751 mmHg 72%
08:00 +27°C° 0.1 mm 1 mps 751 mmHg 67%
09:00 +28°C° 0.1 mm 1 mps 751 mmHg 62%
10:00 +29°C° 0.1 mm 1 mps 751 mmHg 56%
11:00 +29°C° 0.1 mm 2 mps 750 mmHg 55%
12:00 +30°C° 0.1 mm 2 mps 750 mmHg 53%
13:00 +30°C° 0.1 mm 2 mps 750 mmHg 51%
14:00 +30°C° 0 mm 2 mps 750 mmHg 51%
15:00 +30°C° 0 mm 2 mps 749 mmHg 51%
16:00 +30°C° 0 mm 2 mps 749 mmHg 51%
17:00 +29°C° 0.1 mm 2 mps 749 mmHg 56%
18:00 +28°C° 0.1 mm 2 mps 749 mmHg 61%
19:00 +26°C° 0.1 mm 2 mps 749 mmHg 66%
20:00 +25°C° 0.3 mm 2 mps 749 mmHg 69%
21:00 +24°C° 0.3 mm 2 mps 749 mmHg 73%
22:00 +23°C° 0.3 mm 2 mps 749 mmHg 76%
23:00 +23°C° 0 mm 2 mps 749 mmHg 79%

Day after tomorrow, 10 August, Monday

Time Temperature Precipitation Wind Pressure Humidity
00:00 +21°C° 0 mm 2 mps 749 mmHg 81%
01:00 +22°C° 0 mm 1 mps 749 mmHg 83%
02:00 +21°C° 0 mm 1 mps 749 mmHg 85%
03:00 +20°C° 0 mm 2 mps 749 mmHg 87%
04:00 +20°C° 0 mm 2 mps 749 mmHg 89%
05:00 +21°C° 0 mm 2 mps 749 mmHg 86%
06:00 +21°C° 0 mm 2 mps 749 mmHg 83%
07:00 +23°C° 0 mm 2 mps 749 mmHg 80%
08:00 +25°C° 0 mm 3 mps 749 mmHg 73%
09:00 +26°C° 0 mm 3 mps 749 mmHg 67%
10:00 +27°C° 0 mm 3 mps 750 mmHg 60%
11:00 +28°C° 0 mm 3 mps 749 mmHg 57%
12:00 +28°C° 0 mm 3 mps 749 mmHg 54%
13:00 +29°C° 0 mm 4 mps 749 mmHg 51%
14:00 +29°C° 0 mm 4 mps 749 mmHg 52%
15:00 +29°C° 0 mm 4 mps 749 mmHg 53%
16:00 +29°C° 0 mm 4 mps 749 mmHg 53%
17:00 +27°C° 0.1 mm 3 mps 749 mmHg 59%
18:00 +26°C° 0.1 mm 3 mps 749 mmHg 64%
19:00 +25°C° 0.1 mm 3 mps 749 mmHg 70%
20:00 +24°C° 0 mm 3 mps 749 mmHg 72%
21:00 +22°C° 0 mm 3 mps 749 mmHg 74%
22:00 +21°C° 0 mm 3 mps 749 mmHg 76%
23:00 +21°C° 0 mm 3 mps 749 mmHg 79%

11 August, Tuesday

Time Temperature Precipitation Wind Pressure Humidity
00:00 +20°C° 0 mm 3 mps 749 mmHg 82%
01:00 +19°C° 0 mm 3 mps 749 mmHg 85%
02:00 +19°C° 0 mm 2 mps 750 mmHg 86%
03:00 +18°C° 0 mm 2 mps 750 mmHg 88%
04:00 +18°C° 0 mm 2 mps 750 mmHg 89%
05:00 +19°C° 0 mm 3 mps 750 mmHg 86%
06:00 +20°C° 0 mm 3 mps 750 mmHg 82%
07:00 +21°C° 0 mm 3 mps 750 mmHg 79%
08:00 +22°C° 0 mm 3 mps 750 mmHg 70%
09:00 +25°C° 0 mm 3 mps 750 mmHg 61%
10:00 +27°C° 0 mm 3 mps 751 mmHg 53%
11:00 +28°C° 0 mm 3 mps 750 mmHg 50%
12:00 +28°C° 0 mm 3 mps 750 mmHg 47%
13:00 +29°C° 0 mm 4 mps 750 mmHg 45%
14:00 +29°C° 0 mm 4 mps 750 mmHg 46%
15:00 +29°C° 0 mm 4 mps 750 mmHg 47%
16:00 +29°C° 0 mm 4 mps 750 mmHg 48%
17:00 +27°C° 0.2 mm 4 mps 750 mmHg 55%
18:00 +25°C° 0.2 mm 3 mps 750 mmHg 61%
19:00 +22°C° 0.2 mm 3 mps 750 mmHg 67%
20:00 +21°C° 0 mm 3 mps 750 mmHg 69%
21:00 +20°C° 0 mm 3 mps 751 mmHg 70%
22:00 +19°C° 0 mm 3 mps 751 mmHg 72%
23:00 +18°C° 0 mm 3 mps 751 mmHg 74%

12 August, Wednesday

Time Temperature Precipitation Wind Pressure Humidity
00:00 +17°C° 0 mm 3 mps 751 mmHg 76%
01:00 +16°C° 0 mm 3 mps 751 mmHg 77%
02:00 +16°C° 0 mm 3 mps 751 mmHg 80%
03:00 +14°C° 0 mm 3 mps 751 mmHg 82%
04:00 +13°C° 0 mm 3 mps 751 mmHg 85%
05:00 +14°C° 0 mm 3 mps 751 mmHg 82%
06:00 +16°C° 0 mm 3 mps 752 mmHg 79%
07:00 +17°C° 0 mm 3 mps 752 mmHg 75%
08:00 +19°C° 0 mm 3 mps 752 mmHg 68%
09:00 +20°C° 0 mm 3 mps 752 mmHg 61%
10:00 +22°C° 0 mm 3 mps 752 mmHg 54%
11:00 +24°C° 0 mm 3 mps 752 mmHg 50%
12:00 +24°C° 0 mm 3 mps 751 mmHg 45%
13:00 +25°C° 0 mm 3 mps 751 mmHg 41%
14:00 +25°C° 0 mm 3 mps 751 mmHg 41%
15:00 +25°C° 0 mm 3 mps 751 mmHg 42%
16:00 +25°C° 0 mm 3 mps 751 mmHg 42%
17:00 +22°C° 0 mm 3 mps 751 mmHg 48%
18:00 +21°C° 0 mm 3 mps 751 mmHg 54%
19:00 +19°C° 0 mm 3 mps 751 mmHg 60%
20:00 +18°C° 0 mm 3 mps 751 mmHg 63%
21:00 +18°C° 0 mm 3 mps 751 mmHg 65%
22:00 +17°C° 0 mm 3 mps 751 mmHg 68%
23:00 +16°C° 0 mm 3 mps 751 mmHg 70%

13 August, Thursday

Time Temperature Precipitation Wind Pressure Humidity
00:00 +16°C° 0 mm 3 mps 751 mmHg 73%
01:00 +15°C° 0 mm 2 mps 751 mmHg 75%
02:00 +15°C° 0 mm 2 mps 751 mmHg 76%
03:00 +15°C° 0 mm 2 mps 751 mmHg 77%
04:00 +14°C° 0 mm 2 mps 750 mmHg 79%
05:00 +15°C° 0 mm 2 mps 751 mmHg 75%
06:00 +17°C° 0 mm 2 mps 751 mmHg 72%
07:00 +18°C° 0 mm 2 mps 751 mmHg 69%
08:00 +19°C° 0 mm 2 mps 750 mmHg 63%
09:00 +21°C° 0 mm 2 mps 750 mmHg 57%
10:00 +22°C° 0 mm 3 mps 750 mmHg 51%
11:00 +24°C° 0 mm 3 mps 750 mmHg 48%
12:00 +25°C° 0 mm 3 mps 750 mmHg 45%
13:00 +25°C° 0 mm 3 mps 749 mmHg 42%
14:00 +25°C° 0 mm 3 mps 749 mmHg 42%
15:00 +26°C° 0 mm 3 mps 749 mmHg 42%
16:00 +26°C° 0 mm 3 mps 749 mmHg 42%
17:00 +24°C° 0 mm 3 mps 749 mmHg 47%
18:00 +21°C° 0 mm 2 mps 749 mmHg 52%
19:00 +20°C° 0 mm 2 mps 749 mmHg 57%
20:00 +19°C° 0 mm 2 mps 749 mmHg 59%
21:00 +18°C° 0 mm 3 mps 749 mmHg 61%
22:00 +18°C° 0 mm 3 mps 749 mmHg 63%
23:00 +17°C° 0 mm 3 mps 749 mmHg 67%
Show more